QPF
0.03 0.01 0.00 0.00 0.00 0.00 0.00 0.00 0.00 0.00 0.00 0.00 0.00 0.00 0.00 0.00 0.00 0.00 0.00 0.00 0.00 0.00 0.00 0.00 0.00 0.00 0.00 0.00 0.00 0.00 0.00 0.01 0.01 0.01 0.01 0.01 0.02 0.02 0.02 0.02 0.02 0.01 0.01
0.03 0.01 0.00 0.00 0.00 0.00 0.00 0.00 0.00 0.00 0.00 0.00 0.00 0.00 0.00 0.00 0.00 0.00 0.00 0.00 0.00 0.00 0.00 0.00 0.00 0.00 0.00 0.00 0.00 0.00 0.00 0.00 0.01 0.01 0.01 0.02 0.02 0.04 0.04 0.03 0.03 0.03 0.03
0.03 0.01 0.01 0.01 0.00 0.00 0.00 0.00 0.00 0.00 0.00 0.00 0.00 0.00 0.00 0.00 0.00 0.00 0.00 0.00 0.00 0.00 0.00 0.00 0.00 0.00 0.00 0.00 0.00 0.00 0.00 0.00 0.01 0.01 0.02 0.03 0.04 0.06 0.07 0.05 0.05 0.04 0.04
0.03 0.01 0.01 0.01 0.00 0.00 0.00 0.00 0.00 0.00 0.00 0.00 0.00 0.00 0.00 0.00 0.00 0.00 0.00 0.00 0.00 0.00 0.00 0.00 0.00 0.00 0.00 0.00 0.00 0.00 0.00 0.00 0.01 0.01 0.03 0.06 0.08 0.11 0.11 0.07 0.05 0.04 0.04
0.02 0.01 0.01 0.01 0.00 0.00 0.00 0.00 0.00 0.00 0.00 0.00 0.00 0.00 0.00 0.00 0.00 0.00 0.00 0.00 0.00 0.00 0.00 0.00 0.00 0.00 0.01 0.00 0.00 0.00 0.00 0.00 0.00 0.01 0.04 0.08 0.10 0.16 0.14 0.09 0.05 0.04 0.03
0.01 0.00 0.00 0.01 0.01 0.01 0.01 0.01 0.01 0.00 0.00 0.00 0.00 0.00 0.00 0.00 0.00 0.00 0.00 0.00 0.00 0.00 0.00 0.00 0.00 0.00 0.00 0.00 0.00 0.00 0.00 0.00 0.01 0.01 0.02 0.05 0.07 0.12 0.13 0.10 0.07 0.06 0.04
0.00 0.00 0.00 0.01 0.01 0.01 0.01 0.01 0.01 0.01 0.01 0.00 0.00 0.00 0.00 0.00 0.00 0.00 0.00 0.00 0.00 0.00 0.00 0.00 0.00 0.00 0.00 0.00 0.00 0.00 0.00 0.01 0.01 0.01 0.01 0.04 0.08 0.11 0.12 0.12 0.10 0.09 0.07
0.01 0.00 0.00 0.00 0.01 0.01 0.01 0.01 0.01 0.01 0.00 0.00 0.00 0.00 0.00 0.00 0.00 0.00 0.00 0.00 0.00 0.00 0.00 0.00 0.00 0.00 0.00 0.00 0.00 0.00 0.01 0.01 0.01 0.01 0.02 0.04 0.06 0.12 0.13 0.12 0.10 0.09 0.10
0.01 0.01 0.00 0.00 0.01 0.01 0.01 0.00 0.00 0.00 0.00 0.00 0.00 0.00 0.00 0.00 0.00 0.00 0.00 0.00 0.00 0.00 0.00 0.00 0.00 0.00 0.00 0.00 0.00 0.00 0.00 0.01 0.01 0.01 0.02 0.02 0.04 0.08 0.12 0.11 0.10 0.09 0.09
0.02 0.01 0.01 0.00 0.01 0.01 0.00 0.00 0.00 0.00 0.00 0.00 0.00 0.00 0.00 0.00 0.00 0.00 0.00 0.00 0.00 0.00 0.00 0.00 0.00 0.00 0.00 0.00 0.00 0.00 0.01 0.01 0.00 0.01 0.02 0.02 0.04 0.07 0.09 0.08 0.08 0.09 0.08
0.07 0.04 0.02 0.01 0.01 0.00 0.00 0.00 0.00 0.00 0.00 0.00 0.00 0.00 0.00 0.00 0.00 0.01 0.00 0.01 0.01 0.01 0.01 0.01 0.01 0.01 0.01 0.01 0.01 0.01 0.01 0.00 0.01 0.02 0.02 0.03 0.06 0.08 0.09 0.08 0.08 0.09 0.08
0.12 0.12 0.03 0.02 0.02 0.01 0.00 0.00 0.00 0.00 0.00 0.00 0.00 0.01 0.01 0.01 0.00 0.01 0.01 0.01 0.02 0.03 0.02 0.02 0.02 0.01 0.01 0.00 0.01 0.02 0.01 0.01 0.01 0.01 0.02 0.04 0.06 0.07 0.08 0.07 0.07 0.08 0.09
0.08 0.07 0.04 0.03 0.02 0.01 0.01 0.01 0.01 0.01 0.01 0.00 0.01 0.01 0.02 0.01 0.01 0.01 0.01 0.02 0.02 0.03 0.03 0.03 0.03 0.02 0.01 0.01 0.01 0.01 0.01 0.02 0.02 0.02 0.05 0.05 0.06 0.08 0.08 0.07 0.06 0.06 0.08
0.07 0.07 0.05 0.04 0.03 0.03 0.03 0.03 0.05 0.04 0.02 0.01 0.01 0.01 0.01 0.01 0.02 0.02 0.03 0.03 0.02 0.02 0.03 0.03 0.02 0.02 0.02 0.02 0.02 0.02 0.02 0.03 0.02 0.04 0.06 0.07 0.05 0.05 0.05 0.05 0.05 0.05 0.05
0.10 0.07 0.07 0.06 0.05 0.05 0.05 0.05 0.07 0.08 0.03 0.01 0.02 0.02 0.03 0.04 0.04 0.04 0.04 0.03 0.02 0.02 0.02 0.02 0.02 0.03 0.03 0.03 0.04 0.04 0.04 0.04 0.05 0.05 0.06 0.05 0.04 0.04 0.04 0.04 0.04 0.04 0.03
0.16 0.13 0.08 0.07 0.08 0.07 0.06 0.06 0.05 0.05 0.05 0.04 0.04 0.05 0.05 0.05 0.04 0.05 0.05 0.05 0.04 0.04 0.03 0.02 0.02 0.03 0.03 0.02 0.02 0.03 0.05 0.08 0.06 0.04 0.06 0.08 0.04 0.04 0.04 0.05 0.04 0.04 0.04
0.14 0.10 0.10 0.08 0.10 0.10 0.09 0.08 0.08 0.08 0.07 0.06 0.05 0.06 0.05 0.05 0.06 0.07 0.06 0.08 0.09 0.07 0.05 0.05 0.04 0.04 0.03 0.02 0.02 0.02 0.02 0.03 0.03 0.02 0.03 0.03 0.02 0.03 0.04 0.04 0.04 0.04 0.03
0.08 0.07 0.09 0.09 0.08 0.08 0.08 0.11 0.18 0.16 0.10 0.08 0.07 0.06 0.06 0.07 0.08 0.08 0.08 0.10 0.10 0.07 0.05 0.05 0.05 0.03 0.03 0.02 0.02 0.02 0.02 0.03 0.03 0.02 0.02 0.02 0.01 0.01 0.02 0.03 0.03 0.03 0.03
0.04 0.06 0.09 0.12 0.06 0.07 0.10 0.13 0.12 0.08 0.06 0.06 0.07 0.08 0.09 0.09 0.07 0.05 0.05 0.04 0.05 0.04 0.04 0.05 0.06 0.04 0.03 0.02 0.01 0.01 0.01 0.01 0.02 0.02 0.02 0.02 0.02 0.01 0.01 0.01 0.02 0.03 0.03
0.05 0.07 0.12 0.12 0.09 0.10 0.11 0.09 0.06 0.05 0.07 0.08 0.09 0.09 0.08 0.08 0.06 0.05 0.04 0.04 0.05 0.05 0.06 0.06 0.06 0.04 0.03 0.02 0.02 0.01 0.01 0.01 0.01 0.02 0.02 0.02 0.02 0.02 0.02 0.02 0.02 0.01 0.02
0.09 0.10 0.14 0.15 0.11 0.10 0.09 0.07 0.06 0.07 0.10 0.13 0.14 0.12 0.10 0.09 0.07 0.06 0.05 0.05 0.05 0.05 0.04 0.04 0.03 0.03 0.02 0.02 0.02 0.02 0.02 0.02 0.02 0.02 0.02 0.02 0.03 0.03 0.04 0.03 0.02 0.01 0.01
0.15 0.14 0.14 0.13 0.11 0.09 0.08 0.08 0.09 0.09 0.09 0.09 0.09 0.10 0.09 0.08 0.08 0.07 0.08 0.07 0.05 0.04 0.03 0.03 0.03 0.02 0.02 0.02 0.02 0.02 0.01 0.01 0.01 0.01 0.02 0.02 0.03 0.05 0.07 0.08 0.06 0.03 0.02
0.19 0.19 0.16 0.11 0.10 0.12 0.12 0.11 0.11 0.10 0.09 0.09 0.09 0.08 0.07 0.07 0.08 0.09 0.08 0.08 0.06 0.05 0.05 0.04 0.04 0.03 0.03 0.03 0.02 0.02 0.01 0.01 0.01 0.01 0.02 0.03 0.03 0.04 0.05 0.07 0.06 0.03 0.02
0.16 0.13 0.08 0.08 0.09 0.14 0.17 0.14 0.10 0.09 0.07 0.06 0.09 0.10 0.09 0.09 0.09 0.09 0.09 0.09 0.07 0.07 0.07 0.05 0.04 0.04 0.04 0.04 0.03 0.02 0.02 0.01 0.02 0.03 0.03 0.04 0.05 0.05 0.05 0.05 0.05 0.04 0.03
0.13 0.09 0.06 0.06 0.07 0.09 0.10 0.12 0.12 0.08 0.08 0.10 0.11 0.11 0.11 0.11 0.11 0.08 0.08 0.11 0.12 0.09 0.06 0.05 0.04 0.04 0.04 0.04 0.03 0.02 0.02 0.02 0.03 0.03 0.03 0.04 0.04 0.03 0.02 0.02 0.03 0.04 0.05
0.13 0.09 0.06 0.04 0.05 0.07 0.08 0.06 0.09 0.11 0.09 0.08 0.10 0.10 0.09 0.11 0.15 0.12 0.10 0.09 0.08 0.07 0.05 0.05 0.05 0.04 0.03 0.04 0.05 0.04 0.02 0.02 0.02 0.02 0.02 0.02 0.01 0.01 0.01 0.00 0.01 0.01 0.01
MSLP
1008.79 1008.41 1008.25 1008.38 1008.74 1009.27 1009.86 1010.40 1010.80 1011.03 1011.10 1011.08 1011.05 1011.08 1011.22 1011.48 1011.86 1012.29 1012.74 1013.15 1013.51 1013.80 1014.04 1014.24 1014.42 1014.58 1014.72 1014.84 1014.93 1014.97 1014.99 1015.00 1015.02 1015.08 1015.18 1015.32 1015.48 1015.66 1015.83 1015.98 1016.12 1016.23 1016.34
1008.60 1008.33 1008.26 1008.44 1008.84 1009.38 1009.96 1010.48 1010.88 1011.13 1011.24 1011.28 1011.32 1011.41 1011.60 1011.89 1012.26 1012.65 1013.04 1013.39 1013.68 1013.92 1014.13 1014.31 1014.48 1014.64 1014.79 1014.90 1014.98 1015.02 1015.02 1015.04 1015.06 1015.13 1015.24 1015.39 1015.57 1015.76 1015.93 1016.08 1016.20 1016.32 1016.44
1008.34 1008.15 1008.15 1008.38 1008.80 1009.36 1009.94 1010.47 1010.88 1011.16 1011.33 1011.44 1011.54 1011.69 1011.92 1012.22 1012.56 1012.91 1013.23 1013.51 1013.74 1013.93 1014.11 1014.28 1014.46 1014.62 1014.78 1014.90 1014.98 1015.02 1015.04 1015.05 1015.09 1015.17 1015.30 1015.46 1015.64 1015.82 1015.99 1016.13 1016.24 1016.36 1016.48
1008.02 1007.90 1007.96 1008.23 1008.68 1009.25 1009.84 1010.38 1010.81 1011.12 1011.34 1011.50 1011.66 1011.86 1012.11 1012.41 1012.72 1013.02 1013.28 1013.50 1013.68 1013.84 1014.00 1014.18 1014.36 1014.56 1014.73 1014.87 1014.96 1015.01 1015.03 1015.06 1015.11 1015.20 1015.34 1015.50 1015.68 1015.85 1015.99 1016.11 1016.22 1016.33 1016.46
1007.69 1007.63 1007.74 1008.06 1008.54 1009.12 1009.71 1010.24 1010.68 1011.00 1011.25 1011.45 1011.66 1011.89 1012.16 1012.45 1012.74 1013.00 1013.22 1013.40 1013.54 1013.69 1013.86 1014.05 1014.26 1014.48 1014.68 1014.83 1014.94 1015.00 1015.03 1015.06 1015.12 1015.22 1015.35 1015.50 1015.66 1015.81 1015.92 1016.02 1016.11 1016.22 1016.36
1007.42 1007.43 1007.60 1007.96 1008.46 1009.04 1009.61 1010.11 1010.52 1010.84 1011.08 1011.30 1011.54 1011.80 1012.08 1012.37 1012.65 1012.89 1013.08 1013.24 1013.38 1013.54 1013.72 1013.94 1014.18 1014.43 1014.65 1014.82 1014.93 1014.98 1015.02 1015.04 1015.10 1015.19 1015.31 1015.44 1015.58 1015.70 1015.78 1015.85 1015.92 1016.02 1016.17
1007.28 1007.36 1007.61 1008.01 1008.52 1009.08 1009.60 1010.04 1010.39 1010.66 1010.88 1011.09 1011.33 1011.60 1011.90 1012.21 1012.49 1012.73 1012.92 1013.08 1013.24 1013.41 1013.63 1013.88 1014.16 1014.42 1014.66 1014.83 1014.93 1014.98 1014.99 1015.00 1015.04 1015.10 1015.20 1015.32 1015.43 1015.51 1015.57 1015.61 1015.66 1015.76 1015.91
1007.28 1007.46 1007.79 1008.24 1008.75 1009.26 1009.71 1010.06 1010.32 1010.52 1010.68 1010.87 1011.10 1011.38 1011.70 1012.02 1012.32 1012.56 1012.77 1012.95 1013.13 1013.34 1013.58 1013.86 1014.16 1014.45 1014.68 1014.84 1014.92 1014.94 1014.92 1014.91 1014.92 1014.96 1015.04 1015.13 1015.22 1015.28 1015.32 1015.34 1015.38 1015.46 1015.61
1007.42 1007.72 1008.13 1008.62 1009.12 1009.58 1009.93 1010.18 1010.32 1010.42 1010.52 1010.67 1010.89 1011.18 1011.51 1011.85 1012.16 1012.43 1012.66 1012.85 1013.06 1013.28 1013.56 1013.86 1014.18 1014.46 1014.69 1014.83 1014.88 1014.86 1014.81 1014.76 1014.74 1014.76 1014.82 1014.90 1014.97 1015.03 1015.06 1015.07 1015.10 1015.17 1015.31
1007.64 1008.04 1008.54 1009.07 1009.56 1009.94 1010.20 1010.33 1010.37 1010.38 1010.42 1010.53 1010.74 1011.03 1011.38 1011.73 1012.06 1012.34 1012.57 1012.78 1012.99 1013.24 1013.52 1013.84 1014.16 1014.44 1014.65 1014.76 1014.78 1014.74 1014.65 1014.56 1014.51 1014.51 1014.56 1014.63 1014.71 1014.77 1014.81 1014.83 1014.86 1014.92 1015.04
1007.84 1008.36 1008.92 1009.47 1009.93 1010.25 1010.42 1010.45 1010.40 1010.34 1010.34 1010.43 1010.64 1010.94 1011.30 1011.66 1011.99 1012.26 1012.49 1012.70 1012.91 1013.16 1013.44 1013.76 1014.07 1014.35 1014.54 1014.64 1014.63 1014.55 1014.43 1014.32 1014.24 1014.23 1014.27 1014.35 1014.44 1014.53 1014.59 1014.62 1014.66 1014.72 1014.82
1007.95 1008.54 1009.16 1009.71 1010.13 1010.39 1010.48 1010.45 1010.34 1010.25 1010.24 1010.34 1010.57 1010.88 1011.25 1011.61 1011.93 1012.19 1012.40 1012.59 1012.79 1013.02 1013.30 1013.61 1013.92 1014.18 1014.37 1014.45 1014.42 1014.32 1014.18 1014.04 1013.96 1013.93 1013.98 1014.07 1014.18 1014.29 1014.38 1014.45 1014.50 1014.56 1014.64
1007.90 1008.53 1009.16 1009.69 1010.08 1010.28 1010.34 1010.27 1010.16 1010.08 1010.09 1010.23 1010.48 1010.82 1011.20 1011.56 1011.86 1012.10 1012.28 1012.44 1012.62 1012.84 1013.10 1013.41 1013.71 1013.97 1014.15 1014.22 1014.19 1014.08 1013.92 1013.77 1013.67 1013.64 1013.68 1013.78 1013.92 1014.06 1014.17 1014.27 1014.34 1014.41 1014.48
1007.68 1008.30 1008.90 1009.39 1009.74 1009.92 1009.95 1009.90 1009.82 1009.79 1009.86 1010.06 1010.36 1010.74 1011.12 1011.48 1011.76 1011.98 1012.14 1012.27 1012.43 1012.63 1012.89 1013.18 1013.48 1013.74 1013.92 1013.99 1013.96 1013.84 1013.67 1013.52 1013.40 1013.36 1013.39 1013.49 1013.63 1013.79 1013.93 1014.06 1014.15 1014.24 1014.31
1007.32 1007.89 1008.43 1008.87 1009.18 1009.34 1009.39 1009.38 1009.38 1009.43 1009.59 1009.86 1010.21 1010.61 1011.01 1011.36 1011.63 1011.83 1011.97 1012.10 1012.25 1012.44 1012.70 1012.98 1013.28 1013.54 1013.71 1013.78 1013.75 1013.62 1013.46 1013.29 1013.15 1013.09 1013.10 1013.18 1013.32 1013.48 1013.64 1013.79 1013.91 1014.01 1014.10
1006.90 1007.39 1007.85 1008.23 1008.50 1008.67 1008.76 1008.83 1008.92 1009.07 1009.32 1009.65 1010.05 1010.48 1010.88 1011.22 1011.49 1011.68 1011.82 1011.96 1012.11 1012.31 1012.56 1012.85 1013.13 1013.38 1013.55 1013.61 1013.58 1013.46 1013.28 1013.10 1012.95 1012.85 1012.83 1012.88 1013.00 1013.14 1013.30 1013.46 1013.60 1013.72 1013.83
1006.51 1006.91 1007.29 1007.61 1007.86 1008.06 1008.21 1008.36 1008.55 1008.80 1009.12 1009.51 1009.94 1010.36 1010.76 1011.09 1011.35 1011.55 1011.71 1011.86 1012.04 1012.25 1012.50 1012.78 1013.05 1013.28 1013.43 1013.49 1013.45 1013.33 1013.16 1012.96 1012.79 1012.67 1012.61 1012.62 1012.68 1012.80 1012.94 1013.10 1013.25 1013.40 1013.52
1006.22 1006.54 1006.85 1007.13 1007.39 1007.62 1007.85 1008.09 1008.37 1008.70 1009.08 1009.49 1009.91 1010.32 1010.68 1011.00 1011.26 1011.46 1011.65 1011.83 1012.03 1012.26 1012.51 1012.77 1013.02 1013.22 1013.34 1013.39 1013.35 1013.23 1013.07 1012.88 1012.70 1012.55 1012.46 1012.42 1012.44 1012.50 1012.61 1012.75 1012.90 1013.06 1013.20
1006.07 1006.32 1006.59 1006.86 1007.14 1007.43 1007.74 1008.08 1008.44 1008.82 1009.22 1009.62 1010.00 1010.36 1010.68 1010.96 1011.21 1011.42 1011.64 1011.85 1012.07 1012.31 1012.56 1012.80 1013.00 1013.17 1013.27 1013.30 1013.27 1013.17 1013.03 1012.87 1012.70 1012.54 1012.42 1012.34 1012.30 1012.31 1012.38 1012.48 1012.61 1012.76 1012.92
1006.04 1006.26 1006.51 1006.80 1007.13 1007.49 1007.89 1008.30 1008.73 1009.14 1009.54 1009.90 1010.22 1010.50 1010.76 1010.99 1011.21 1011.43 1011.66 1011.90 1012.14 1012.38 1012.61 1012.82 1012.99 1013.12 1013.20 1013.22 1013.20 1013.15 1013.05 1012.94 1012.80 1012.66 1012.52 1012.40 1012.32 1012.27 1012.27 1012.32 1012.42 1012.54 1012.69
1006.06 1006.28 1006.54 1006.88 1007.27 1007.72 1008.21 1008.70 1009.18 1009.60 1009.97 1010.27 1010.51 1010.71 1010.88 1011.06 1011.25 1011.46 1011.70 1011.95 1012.20 1012.44 1012.64 1012.82 1012.94 1013.04 1013.10 1013.14 1013.16 1013.16 1013.13 1013.08 1013.00 1012.90 1012.77 1012.63 1012.50 1012.39 1012.32 1012.30 1012.34 1012.42 1012.54
1006.09 1006.32 1006.62 1007.01 1007.48 1008.02 1008.59 1009.15 1009.67 1010.10 1010.43 1010.67 1010.82 1010.94 1011.04 1011.15 1011.31 1011.51 1011.74 1011.99 1012.24 1012.46 1012.64 1012.78 1012.88 1012.95 1013.01 1013.07 1013.14 1013.21 1013.28 1013.31 1013.31 1013.25 1013.14 1013.00 1012.82 1012.66 1012.51 1012.41 1012.37 1012.39 1012.45
1006.07 1006.32 1006.66 1007.10 1007.64 1008.26 1008.91 1009.53 1010.08 1010.52 1010.82 1011.01 1011.10 1011.14 1011.18 1011.24 1011.36 1011.54 1011.77 1012.01 1012.25 1012.45 1012.60 1012.71 1012.79 1012.85 1012.93 1013.02 1013.16 1013.31 1013.46 1013.59 1013.67 1013.66 1013.58 1013.43 1013.23 1013.00 1012.78 1012.60 1012.47 1012.40 1012.38
1006.00 1006.26 1006.62 1007.10 1007.70 1008.38 1009.08 1009.75 1010.33 1010.78 1011.08 1011.23 1011.28 1011.28 1011.28 1011.31 1011.41 1011.57 1011.78 1012.02 1012.24 1012.42 1012.56 1012.65 1012.72 1012.78 1012.88 1013.02 1013.21 1013.44 1013.67 1013.88 1014.02 1014.07 1014.01 1013.85 1013.62 1013.34 1013.05 1012.78 1012.56 1012.40 1012.29
1005.92 1006.18 1006.54 1007.05 1007.67 1008.37 1009.10 1009.80 1010.40 1010.86 1011.17 1011.32 1011.37 1011.36 1011.34 1011.36 1011.45 1011.60 1011.80 1012.02 1012.22 1012.40 1012.52 1012.60 1012.67 1012.75 1012.87 1013.05 1013.29 1013.57 1013.86 1014.11 1014.29 1014.36 1014.32 1014.16 1013.90 1013.57 1013.22 1012.89 1012.58 1012.34 1012.14
1005.91 1006.15 1006.50 1006.99 1007.60 1008.30 1009.03 1009.73 1010.34 1010.80 1011.12 1011.30 1011.36 1011.37 1011.36 1011.40 1011.48 1011.63 1011.82 1012.03 1012.23 1012.38 1012.50 1012.58 1012.66 1012.75 1012.89 1013.09 1013.35 1013.65 1013.96 1014.22 1014.41 1014.49 1014.44 1014.26 1013.98 1013.63 1013.24 1012.84 1012.48 1012.16 1011.89
Thickness
5802 5804 5803 5801 5799 5797 5795 5792 5789 5787 5784 5782 5779 5776 5773 5771 5768 5766 5763 5761 5759 5756 5754 5752 5750 5749 5747 5746 5744 5743 5742 5741 5740 5739 5739 5737 5736 5736 5735 5734 5734 5733 5732
5808 5804 5802 5800 5798 5795 5792 5790 5787 5784 5782 5779 5776 5773 5770 5768 5766 5763 5761 5759 5757 5754 5752 5750 5748 5747 5745 5743 5742 5741 5740 5739 5737 5736 5736 5735 5734 5733 5733 5732 5731 5730 5730
5809 5805 5801 5798 5796 5793 5790 5787 5785 5782 5780 5777 5774 5771 5768 5765 5763 5761 5759 5757 5755 5752 5750 5748 5746 5744 5743 5741 5740 5739 5738 5737 5735 5734 5733 5732 5731 5730 5730 5729 5729 5728 5727
5808 5804 5800 5797 5794 5791 5788 5785 5783 5780 5777 5774 5772 5769 5766 5763 5760 5758 5756 5754 5752 5750 5748 5746 5744 5742 5741 5739 5738 5736 5735 5734 5733 5732 5731 5730 5729 5728 5728 5727 5727 5726 5724
5805 5802 5799 5796 5792 5789 5786 5783 5780 5777 5775 5772 5769 5766 5763 5761 5758 5756 5754 5752 5750 5748 5746 5744 5742 5741 5739 5737 5735 5734 5733 5732 5731 5730 5729 5728 5727 5726 5726 5725 5725 5724 5722
5803 5800 5797 5793 5790 5787 5784 5781 5778 5775 5772 5769 5766 5763 5760 5758 5755 5753 5751 5749 5748 5745 5743 5742 5740 5738 5736 5735 5733 5732 5731 5730 5729 5728 5728 5727 5726 5725 5724 5723 5722 5722 5720
5800 5797 5794 5790 5787 5784 5781 5778 5775 5772 5769 5766 5764 5761 5758 5755 5753 5751 5749 5747 5745 5743 5741 5739 5737 5736 5734 5732 5731 5729 5728 5728 5727 5726 5725 5725 5725 5723 5722 5721 5720 5719 5718
5799 5794 5791 5787 5783 5780 5777 5775 5772 5769 5766 5763 5761 5758 5755 5752 5750 5748 5746 5743 5741 5740 5738 5736 5734 5733 5731 5730 5728 5727 5726 5726 5725 5724 5723 5722 5722 5721 5720 5719 5718 5717 5716
5795 5790 5787 5783 5780 5777 5774 5771 5768 5765 5763 5760 5757 5754 5752 5750 5747 5745 5743 5740 5739 5737 5736 5734 5732 5730 5729 5727 5726 5724 5724 5723 5722 5721 5720 5720 5719 5719 5718 5717 5716 5714 5713
5787 5784 5782 5779 5777 5775 5771 5768 5765 5762 5759 5757 5754 5752 5749 5747 5745 5742 5740 5738 5736 5734 5733 5731 5729 5728 5726 5724 5723 5722 5721 5720 5719 5718 5717 5717 5716 5716 5715 5714 5713 5712 5711
5779 5778 5777 5775 5773 5771 5768 5765 5762 5759 5756 5753 5751 5749 5746 5744 5741 5739 5737 5735 5734 5732 5731 5729 5727 5724 5723 5721 5720 5719 5717 5716 5715 5714 5714 5713 5713 5712 5711 5711 5710 5709 5708
5774 5774 5774 5772 5770 5767 5765 5762 5758 5756 5753 5750 5748 5746 5743 5741 5739 5737 5735 5733 5731 5730 5728 5725 5723 5722 5719 5718 5716 5715 5714 5713 5711 5710 5710 5710 5709 5708 5707 5707 5706 5705 5705
5775 5773 5771 5770 5768 5765 5762 5758 5755 5752 5749 5747 5745 5742 5739 5737 5735 5733 5731 5729 5727 5726 5724 5722 5720 5718 5716 5714 5713 5711 5710 5709 5708 5707 5706 5706 5705 5704 5702 5702 5702 5702 5701
5769 5768 5767 5766 5764 5762 5759 5755 5752 5749 5746 5743 5741 5739 5736 5732 5730 5728 5726 5725 5723 5722 5720 5717 5716 5714 5712 5711 5709 5708 5706 5705 5704 5703 5702 5701 5700 5699 5698 5698 5697 5697 5697
5764 5763 5761 5761 5759 5757 5753 5751 5749 5746 5743 5740 5738 5736 5733 5730 5726 5724 5722 5721 5719 5717 5715 5713 5711 5710 5708 5706 5705 5704 5702 5701 5700 5699 5698 5697 5696 5695 5695 5694 5694 5693 5693
5760 5758 5758 5756 5754 5752 5749 5746 5744 5741 5738 5735 5733 5731 5729 5727 5724 5721 5719 5717 5715 5713 5710 5708 5706 5705 5703 5702 5701 5699 5698 5696 5696 5695 5694 5693 5692 5691 5691 5690 5689 5688 5688
5758 5756 5754 5752 5750 5747 5744 5741 5739 5736 5733 5731 5729 5727 5725 5723 5720 5717 5715 5712 5710 5709 5706 5704 5702 5700 5698 5697 5696 5695 5693 5692 5690 5690 5689 5688 5687 5687 5686 5685 5684 5683 5683
5755 5752 5750 5750 5746 5744 5742 5738 5735 5732 5729 5727 5725 5723 5721 5719 5715 5712 5710 5707 5706 5704 5702 5700 5697 5694 5692 5690 5689 5689 5688 5687 5686 5685 5684 5683 5682 5682 5681 5680 5679 5678 5678
5750 5748 5745 5744 5741 5739 5736 5733 5730 5727 5724 5722 5720 5717 5715 5712 5710 5707 5705 5703 5701 5698 5696 5694 5691 5689 5686 5685 5684 5684 5683 5682 5681 5680 5678 5677 5676 5676 5675 5674 5673 5673 5672
5746 5743 5740 5738 5735 5732 5729 5726 5723 5720 5718 5716 5714 5712 5709 5706 5704 5701 5699 5698 5696 5693 5690 5688 5685 5684 5681 5679 5679 5678 5677 5676 5675 5673 5672 5671 5670 5670 5668 5667 5666 5666 5665
5738 5736 5733 5731 5728 5726 5722 5719 5715 5712 5711 5710 5708 5706 5704 5700 5697 5695 5693 5691 5689 5686 5684 5682 5679 5676 5674 5673 5669 5668 5669 5669 5668 5667 5666 5665 5664 5663 5662 5661 5660 5659 5659
5732 5728 5728 5726 5722 5720 5717 5714 5711 5708 5705 5703 5702 5700 5697 5694 5691 5689 5687 5685 5683 5680 5678 5676 5673 5669 5667 5666 5661 5656 5654 5656 5659 5661 5659 5657 5656 5656 5655 5654 5653 5653 5652
5726 5724 5723 5720 5717 5715 5712 5708 5705 5701 5698 5695 5693 5692 5690 5688 5686 5683 5681 5679 5677 5674 5671 5670 5667 5663 5659 5658 5656 5651 5645 5642 5645 5649 5650 5650 5648 5647 5647 5647 5647 5647 5647
5722 5721 5718 5715 5713 5710 5707 5702 5698 5693 5689 5688 5686 5684 5683 5682 5680 5678 5676 5673 5670 5667 5665 5664 5662 5659 5655 5651 5649 5647 5644 5641 5636 5636 5639 5641 5640 5640 5640 5640 5640 5641 5641
5718 5715 5712 5708 5706 5704 5701 5697 5693 5688 5685 5682 5679 5677 5676 5676 5674 5672 5670 5667 5664 5662 5660 5658 5656 5653 5650 5646 5642 5640 5638 5635 5632 5628 5628 5630 5632 5633 5634 5634 5634 5634 5635
5712 5709 5705 5701 5699 5697 5694 5691 5687 5682 5679 5676 5673 5671 5669 5668 5667 5666 5664 5662 5660 5658 5656 5654 5651 5648 5645 5643 5639 5637 5633 5629 5626 5623 5621 5621 5623 5626 5627 5628 5628 5628 5629